ペトリュー彗星

185P/Petriew (2001)

English version
Home page
Updated on January 16, 2007

---------------------------------------------------------------------

・ プロフィール

符号 185P/2001 Q2
発見日 2001年8月18日
発見光度 11.0等
発見者 V. A. Petriew (Cyprus Hills, SK)

・ 軌道要素

                    Epoch = 2001 Sept. 8.0 TT
     T = 2001 Sept. 1.9221 TT         Peri. = 181.9012
     e = 0.696237                     Node  = 214.1070  2000.0
     q = 0.945691 AU                  Incl. =  13.9444
       a =  3.113256 AU    n = 0.1794246    P =   5.49 years

・ 星図

・ 光度変化

        m1 = 10.5 + 5 logΔ + 25.0 log r

---------------------------------------------------------------------

軌道要素は Dr. Brian G. Marsden の計算によるもので、 IAUC 8796 に掲載されたものです。
星図は StellaNavigator Ver.2.0 for Windows (アストロアーツ 編著 / アスキー出版局刊) で作成したものです。
光度グラフはComet for Windowsで作成したものです。

---------------------------------------------------------------------

Copyright(C) Seiichi Yoshida (comet@aerith.net). All rights reserved.